Temp
10 9 9 9 9 8 8 7 7 7 7 7 7 7 6 6 5 4 4 3 4 4 4 4 5 5 5 5 5 5 5 4 4 4 4 4 4 4 4 4 4 3 3 3 3 3 4 4 4 4 4 4 4 4 4 4 3 4 5 5 6 7 7 8 8 8 8 8 8 9 10 10 10 10
9 8 8 8 8 7 7 7 7 7 7 7 6 6 5 5 4 3 3 2 3 4 4 4 4 4 4 4 5 5 5 4 4 4 4 4 4 4 4 4 3 3 3 3 3 3 3 3 3 3 3 4 4 4 4 3 3 3 3 4 5 6 7 7 7 8 8 8 8 9 9 10 10 10
8 8 8 8 7 7 6 6 6 6 6 6 6 5 5 4 3 3 3 3 3 3 4 4 4 4 4 4 4 4 4 4 5 5 4 4 4 4 4 4 3 3 3 3 3 3 3 3 3 2 2 2 2 3 3 3 3 2 2 3 4 5 6 7 7 7 8 8 8 8 9 9 10 10
7 7 7 7 7 6 6 6 6 6 6 5 5 4 4 3 3 3 3 3 4 4 3 4 4 4 4 4 4 4 4 4 4 5 4 4 3 3 4 3 3 2 3 3 3 2 2 2 2 1 1 1 1 2 2 2 2 2 2 2 3 4 5 6 7 7 8 8 8 8 8 9 9 9
7 7 7 7 6 6 6 6 6 6 5 5 4 4 3 3 3 3 3 3 4 4 3 3 4 4 3 3 4 4 4 4 4 4 4 4 3 3 3 3 2 3 3 3 2 1 1 0 0 -0 -0 0 0 1 1 2 2 2 2 1 2 3 5 5 6 7 7 8 8 8 8 8 9 9
6 6 6 6 6 6 6 6 6 5 5 4 4 3 3 2 2 3 3 3 3 4 4 3 3 3 3 3 3 3 3 3 3 3 3 3 3 2 3 2 3 3 2 2 1 -0 -1 -1 -1 -1 -1 -1 -0 0 1 2 2 2 2 2 2 3 4 5 5 6 7 7 8 8 8 8 8 9
6 6 6 6 6 6 6 6 5 5 5 4 4 3 3 3 3 3 3 3 3 3 4 3 3 3 4 3 3 3 3 2 2 2 3 3 2 2 2 1 1 1 1 0 -0 -1 -2 -2 -2 -2 -2 -1 -1 -0 -0 0 1 2 2 2 2 2 4 5 6 6 6 7 7 8 8 8 8 8
6 6 6 6 6 6 6 5 5 5 5 4 4 4 4 3 3 3 3 3 3 3 3 3 3 3 3 3 3 2 2 2 2 1 1 2 2 2 1 -0 -1 -0 0 -1 -1 -2 -2 -2 -2 -2 -2 -2 -2 -1 -0 -0 0 1 1 1 1 2 3 4 6 6 6 6 7 7 8 8 8 8
6 6 6 6 5 5 5 5 5 5 5 4 4 4 4 4 4 3 3 3 3 3 3 3 3 3 3 3 3 2 1 1 1 0 0 1 2 2 1 -1 -2 -1 -1 -2 -2 -2 -2 -2 -2 -2 -2 -2 -2 -1 -0 0 0 1 1 1 1 1 1 3 5 6 6 6 7 7 7 8 8 8
6 6 6 5 5 5 5 5 5 5 4 4 4 4 4 4 4 4 4 3 3 3 3 3 3 3 2 2 2 1 1 1 0 -0 0 1 1 1 -0 -1 -1 -1 -2 -2 -2 -2 -2 -2 -2 -2 -2 -2 -2 -1 0 0 1 1 1 1 1 1 0 1 2 5 6 6 6 7 7 7 8 8
6 6 5 5 5 5 5 5 5 5 4 4 4 4 4 4 4 4 4 3 3 3 3 3 2 2 1 1 1 1 0 -0 -1 -0 0 1 1 0 -1 -1 -1 -1 -2 -2 -2 -2 -2 -2 -2 -2 -2 -2 -2 -1 -1 -1 -0 1 1 1 1 1 1 0 1 2 4 6 6 6 6 7 7 8
6 5 5 5 5 5 5 5 5 4 4 4 4 4 4 4 4 4 3 3 3 2 2 2 2 2 1 0 -0 0 -0 -1 -0 -0 -0 -0 -0 -1 -1 -1 -1 -1 -2 -2 -2 -2 -2 -2 -2 -2 -2 -2 -2 -2 -2 -2 -2 -1 -1 0 -0 -0 0 1 0 1 2 4 5 6 6 6 7 7
5 5 5 5 5 5 4 4 4 4 4 4 4 4 4 4 4 3 3 3 2 2 2 2 2 1 0 -0 -0 -0 -1 -1 -1 -0 -0 -1 -1 -1 -1 -1 -1 -1 -2 -2 -2 -2 -2 -2 -2 -2 -2 -2 -3 -3 -3 -3 -3 -3 -2 -1 -1 -1 -0 0 0 0 1 3 4 4 5 5 6 7
5 5 5 5 5 5 4 4 4 4 3 3 3 3 3 3 3 3 3 2 2 2 2 1 1 1 0 0 -0 -1 -1 -1 -1 -0 -0 -1 -1 -1 -1 -1 -1 -1 -2 -2 -2 -2 -2 -2 -3 -3 -3 -3 -3 -3 -3 -3 -3 -3 -2 -1 -1 -0 -0 -0 -0 0 1 2 3 4 4 4 5 6
5 5 5 5 5 5 5 4 4 4 3 3 3 3 3 2 2 2 2 2 2 2 2 2 1 0 0 0 -0 -1 -1 -1 -0 -0 -0 -1 -1 -1 -2 -2 -1 -2 -2 -2 -2 -3 -3 -3 -3 -3 -3 -3 -3 -3 -3 -3 -3 -3 -3 -2 -1 -0 0 0 0 0 0 1 2 3 3 3 4 5
5 5 5 5 5 5 5 4 4 4 4 4 3 3 3 3 2 2 2 2 2 2 2 2 1 0 0 0 -0 -1 -1 -1 -0 -0 -0 -0 -0 -1 -2 -2 -2 -2 -2 -3 -3 -3 -3 -3 -3 -3 -3 -3 -3 -3 -3 -3 -3 -3 -2 -2 -1 -0 0 1 0 0 1 1 2 3 3 3 3 4
5 5 4 5 5 5 5 5 4 4 4 4 4 3 3 3 3 3 2 2 2 2 2 2 2 1 1 0 0 -0 -1 -1 -0 -0 -0 0 -0 -1 -2 -2 -2 -2 -2 -3 -3 -3 -3 -3 -3 -3 -3 -3 -3 -3 -3 -3 -2 -2 -2 -2 -1 -1 0 1 1 1 1 1 2 3 3 3 3 4
5 4 4 5 5 5 5 5 4 4 4 4 4 4 4 3 3 3 3 3 2 2 2 2 2 2 1 1 0 -0 -0 -1 -1 -0 0 -0 -0 -1 -2 -2 -2 -2 -2 -3 -3 -3 -3 -3 -4 -3 -3 -3 -3 -3 -3 -3 -3 -2 -2 -2 -2 -1 -0 0 1 1 1 1 2 3 3 3 3 3
5 4 4 5 5 5 5 5 5 4 4 4 4 4 4 3 3 3 3 3 2 2 2 2 2 2 1 1 1 0 -0 -0 -1 -0 0 -0 -1 -1 -2 -2 -2 -2 -3 -3 -3 -3 -3 -3 -4 -3 -3 -4 -3 -3 -3 -4 -3 -2 -2 -2 -2 -1 -0 0 1 1 1 2 2 2 3 3 2 3
5 4 4 5 5 5 5 5 5 4 4 4 4 4 4 4 3 3 3 2 2 2 2 2 2 2 2 2 1 1 0 -0 -0 -0 -0 -0 -1 -1 -2 -2 -2 -2 -3 -3 -3 -3 -3 -3 -4 -4 -4 -4 -3 -3 -3 -4 -3 -3 -2 -2 -2 -1 -0 0 1 2 2 2 2 2 3 3 2 3
5 5 4 5 5 5 5 5 4 4 4 4 4 4 4 4 4 3 3 3 3 3 3 3 2 2 2 2 2 2 1 0 -0 -0 -0 -0 -1 -2 -2 -2 -2 -2 -2 -3 -3 -3 -3 -3 -4 -4 -4 -4 -4 -4 -4 -4 -4 -3 -2 -2 -1 -1 -1 -0 1 1 2 2 2 2 2 2 2 2
5 5 4 5 5 5 5 5 4 4 4 4 4 4 4 3 3 3 3 3 3 3 3 3 3 3 3 3 3 2 2 1 0 -0 -0 -0 -1 -1 -2 -2 -2 -2 -2 -3 -3 -3 -3 -3 -4 -4 -4 -4 -4 -4 -4 -4 -4 -4 -3 -2 -1 -1 -1 -1 -0 1 1 2 2 3 2 2 2 2
5 5 5 5 5 5 5 4 4 4 4 4 4 4 3 3 3 2 2 3 3 3 3 3 3 3 3 3 3 3 2 2 1 0 -0 -0 -1 -1 -2 -2 -2 -2 -2 -2 -3 -3 -3 -3 -4 -4 -4 -4 -4 -4 -4 -4 -4 -4 -3 -2 -1 -1 -1 -1 -0 0 1 1 2 2 2 2 1 1
5 5 5 5 5 5 4 4 4 4 4 4 3 3 3 3 2 2 2 2 2 2 2 2 3 3 3 3 3 3 3 2 2 1 0 -0 -0 -1 -1 -2 -2 -2 -2 -2 -3 -3 -3 -3 -3 -4 -4 -5 -4 -4 -5 -4 -4 -3 -3 -2 -1 -1 -0 -1 -0 0 1 1 2 2 2 1 1 0
5 5 5 5 5 4 4 4 4 4 3 3 3 3 3 2 2 2 2 2 2 2 2 2 2 2 2 2 2 3 2 2 2 1 1 0 -0 -0 -1 -1 -1 -1 -1 -1 -2 -3 -3 -3 -3 -4 -4 -5 -5 -5 -4 -4 -3 -3 -3 -2 -2 -1 -1 -0 -0 -0 -0 1 1 1 1 1 1 0
5 5 5 5 4 4 4 4 3 3 3 3 3 3 2 2 2 2 2 2 2 2 2 2 2 2 2 2 2 2 2 2 2 2 1 1 0 0 -0 -1 -1 -1 -1 -1 -1 -2 -2 -2 -3 -4 -4 -5 -5 -5 -5 -4 -3 -3 -2 -2 -2 -1 -1 -1 -0 -0 -0 -0 0 1 1 0 1 1
5 5 4 4 4 3 3 3 3 3 3 3 3 3 2 2 2 2 2 2 2 2 2 2 2 2 2 2 1 1 1 2 2 2 1 1 1 1 0 0 -0 -1 -1 -1 -1 -2 -2 -2 -2 -3 -4 -5 -5 -5 -5 -5 -4 -3 -3 -2 -2 -2 -1 -1 0 0 0 0 -0 -0 -0 -0 0 1
5 5 4 4 4 3 3 3 3 3 3 3 3 2 2 2 2 2 2 2 2 1 1 1 1 1 1 1 1 1 1 1 2 2 2 2 2 1 1 1 0 -0 -0 -0 -1 -1 -2 -1 -1 -3 -4 -5 -5 -5 -5 -5 -5 -4 -4 -3 -2 -1 -1 -0 0 1 1 1 0 -0 -0 -0 -0 1
5 4 4 4 3 3 3 3 3 3 2 2 2 2 2 2 2 2 2 2 1 1 1 1 1 1 1 1 1 1 1 1 1 1 2 2 2 1 1 1 1 -0 -0 -0 -0 -1 -1 -1 -1 -2 -3 -4 -5 -5 -5 -5 -5 -4 -4 -4 -2 -1 -1 -0 1 1 1 1 1 1 1 0 0 1
4 4 4 3 3 3 3 3 2 2 2 2 2 2 1 1 1 1 1 1 1 1 1 1 1 1 1 1 1 1 1 1 1 1 1 1 1 1 1 1 1 0 0 -0 -0 -1 -1 -1 -1 -1 -2 -3 -4 -5 -5 -5 -5 -4 -4 -4 -3 -2 -1 -0 1 2 1 1 1 1 1 1 1 1
4 4 4 3 3 3 3 3 2 2 2 2 2 1 1 1 1 1 1 1 1 1 1 1 1 1 1 1 1 1 1 1 1 1 1 1 1 1 1 0 0 0 1 0 -0 -0 -0 -0 -1 -1 -2 -2 -3 -4 -4 -5 -4 -4 -3 -4 -4 -3 -2 -0 1 1 1 2 2 2 2 2 2 1
4 4 4 3 3 3 3 2 2 2 2 2 2 1 1 1 1 1 1 1 1 1 1 1 1 2 2 1 1 1 1 1 1 1 1 1 1 1 1 0 -0 -0 0 0 0 0 0 0 -0 -1 -2 -2 -3 -4 -4 -4 -4 -3 -3 -3 -4 -3 -2 -1 0 1 1 1 2 2 2 2 2 2
4 4 3 3 3 3 2 2 2 2 2 2 2 1 1 1 1 1 1 1 1 1 1 1 2 2 2 2 1 1 1 1 1 1 1 1 1 1 1 0 -0 -0 -0 -0 -0 -0 0 0 0 0 -0 -1 -3 -4 -4 -3 -3 -3 -3 -3 -3 -3 -2 -1 -1 -0 0 0 1 2 2 2 2 2
4 4 3 3 3 2 2 2 2 2 2 2 2 1 1 1 1 1 1 1 2 2 2 2 2 2 2 2 2 1 1 1 1 1 1 1 1 1 0 0 -0 -0 -0 -1 -1 -1 -1 -0 0 1 0 -1 -2 -3 -4 -3 -2 -2 -2 -2 -3 -3 -3 -2 -1 -1 -0 -0 0 1 2 2 2 2
4 4 3 3 3 2 2 2 2 2 2 2 2 1 2 2 2 1 1 2 2 2 2 2 2 2 2 2 2 1 1 1 1 1 1 1 1 1 0 0 0 -0 -0 -1 -1 -1 -1 -1 -1 -1 -1 -1 -2 -2 -3 -3 -3 -2 -2 -2 -2 -2 -2 -2 -2 -1 -1 -0 0 1 1 1 1 2
4 3 3 3 3 3 2 2 2 2 2 2 2 2 2 2 2 2 2 2 2 2 2 2 2 2 2 2 2 2 1 1 1 1 1 1 1 1 1 1 0 0 -0 -1 -1 -1 -1 -1 -1 -1 -2 -2 -2 -2 -2 -3 -2 -1 -1 -1 -1 -1 -1 -1 -1 -1 -1 -1 -0 0 1 1 1 1
4 4 3 3 3 3 3 2 2 2 2 2 2 2 2 2 2 2 2 2 2 2 2 2 2 2 2 2 2 2 2 2 1 1 1 1 1 1 1 1 1 0 0 -0 -1 -1 -1 -1 -1 -1 -2 -2 -3 -3 -3 -3 -2 -1 -1 -1 -1 -1 -1 -1 -1 -1 -1 -1 -1 -1 -1 -0 0 0
4 4 3 3 3 3 3 3 2 2 2 2 2 2 2 2 2 2 2 2 2 2 2 2 2 2 2 2 2 2 2 2 2 2 1 1 1 1 1 1 1 1 0 0 -0 -1 -1 -1 -1 -1 -2 -2 -3 -3 -3 -3 -3 -3 -3 -2 -1 -1 -1 -1 -1 -1 -1 -1 -1 -1 -1 -1 -0 -0
4 4 3 3 3 3 3 3 2 2 2 2 2 2 2 2 2 2 2 2 2 2 2 2 2 2 2 2 2 2 2 2 2 2 1 1 1 1 1 1 1 1 1 0 0 -0 -1 -1 -1 -1 -1 -2 -3 -3 -3 -3 -3 -3 -3 -3 -2 -1 -1 -1 -1 -1 -1 -1 -1 -1 -1 -1 -0 -0
4 3 3 3 3 3 3 3 2 2 2 2 2 2 2 2 2 2 2 2 2 2 2 2 2 2 2 2 2 2 2 2 2 1 2 1 1 1 1 1 1 1 1 1 0 -0 -0 -1 -1 -1 -1 -1 -2 -2 -2 -2 -2 -2 -2 -3 -3 -2 -2 -1 -1 -1 -1 -1 -0 -0 0 0 0 1
4 3 3 3 3 3 3 3 3 2 2 2 2 2 2 2 2 2 2 2 2 2 2 2 2 2 2 2 2 2 2 2 2 2 2 1 1 1 1 1 1 1 1 1 1 0 -0 -0 -0 -1 -1 -1 -1 -1 -1 -2 -2 -2 -2 -2 -2 -2 -2 -2 -1 -1 -0 0 1 1 1 0 0 1
3 3 3 3 3 3 3 3 3 3 3 2 2 2 2 2 2 2 2 2 2 2 3 3 3 3 3 3 2 2 2 2 2 2 2 2 1 1 1 1 1 1 1 1 1 1 1 0 0 0 -0 -1 -1 -1 -1 -2 -2 -2 -1 -1 -1 -1 -1 -1 -1 -1 -1 -0 0 0 0 0 0 -0
3 3 3 3 3 3 3 3 3 3 3 3 2 2 2 2 2 2 2 3 3 3 3 3 3 3 3 3 3 3 3 3 3 3 3 2 2 1 1 1 1 1 1 1 1 1 1 1 1 0 0 -0 -1 -1 -1 -1 -2 -2 -1 -1 -1 -1 -1 -1 -1 -1 -1 -1 -1 -1 -1 -1 -1 -2
3 3 3 3 3 3 3 3 3 3 3 3 3 3 2 2 2 2 3 3 3 3 3 3 3 3 3 3 3 3 3 3 3 3 3 3 2 2 1 1 1 1 1 1 1 1 1 1 1 1 0 0 -0 -0 -1 -1 -1 -1 -1 -1 -1 -1 -1 -1 -1 -1 -1 -1 -2 -2 -2 -1 -2 -2
3 3 3 3 3 3 3 3 3 3 3 3 3 3 3 3 3 3 3 3 3 3 3 3 3 3 3 3 3 3 3 3 3 3 3 3 3 2 2 2 1 1 1 1 1 1 1 1 1 1 1 0 0 0 -0 -1 -1 -1 -1 -1 -1 -1 -1 -1 -1 -1 -1 -1 -1 -1 -1 -1 -1 -1
Height
1567 1567 1566 1565 1564 1563 1563 1563 1562 1562 1562 1562 1561 1560 1559 1559 1558 1557 1556 1555 1553 1551 1549 1546 1544 1542 1540 1537 1535 1532 1529 1526 1523 1520 1517 1513 1510 1507 1504 1500 1496 1493 1490 1487 1484 1482 1479 1477 1474 1472 1470 1469 1467 1465 1464 1463 1461 1459 1458 1458 1458 1459 1459 1460 1461 1462 1463 1464 1465 1468 1471 1473 1475 1478
1567 1567 1566 1565 1564 1564 1563 1563 1563 1563 1563 1562 1561 1561 1560 1559 1558 1557 1556 1555 1553 1551 1549 1546 1544 1541 1539 1537 1534 1531 1528 1525 1522 1518 1515 1512 1508 1505 1501 1497 1493 1490 1486 1483 1481 1478 1475 1473 1470 1468 1465 1464 1462 1460 1459 1458 1457 1455 1454 1454 1454 1454 1454 1454 1456 1457 1458 1459 1461 1463 1466 1468 1471 1473
1567 1567 1566 1565 1564 1564 1564 1563 1563 1563 1563 1562 1561 1560 1560 1559 1558 1557 1555 1555 1553 1550 1548 1546 1544 1541 1538 1535 1532 1530 1527 1524 1521 1517 1513 1509 1506 1501 1497 1494 1490 1486 1483 1480 1477 1474 1471 1469 1466 1463 1461 1458 1457 1455 1454 1453 1452 1451 1450 1450 1449 1450 1449 1449 1450 1452 1453 1455 1456 1458 1460 1463 1466 1469
1567 1567 1566 1565 1565 1565 1564 1564 1564 1564 1563 1562 1561 1560 1559 1558 1557 1556 1555 1553 1552 1550 1548 1545 1543 1540 1537 1534 1531 1528 1526 1523 1519 1516 1511 1507 1503 1499 1495 1491 1487 1483 1480 1477 1473 1470 1467 1465 1462 1459 1456 1453 1451 1450 1448 1447 1446 1446 1445 1445 1445 1445 1445 1445 1445 1447 1448 1450 1452 1454 1456 1458 1461 1463
1567 1567 1566 1566 1565 1565 1565 1565 1564 1564 1563 1562 1561 1560 1559 1558 1556 1555 1554 1553 1551 1549 1547 1545 1542 1539 1535 1533 1530 1527 1523 1520 1517 1513 1509 1505 1501 1497 1492 1488 1484 1481 1477 1473 1470 1467 1463 1460 1457 1454 1451 1449 1447 1445 1443 1442 1441 1440 1439 1439 1440 1440 1440 1441 1441 1442 1444 1445 1447 1449 1451 1453 1455 1458
1567 1567 1567 1566 1566 1566 1565 1565 1565 1564 1563 1562 1561 1560 1559 1558 1556 1555 1554 1552 1550 1548 1546 1544 1541 1538 1535 1531 1528 1525 1521 1517 1514 1510 1507 1503 1499 1495 1491 1486 1481 1477 1473 1469 1465 1462 1458 1455 1452 1450 1447 1444 1442 1440 1438 1437 1435 1435 1434 1434 1434 1434 1435 1436 1437 1438 1439 1441 1442 1444 1446 1448 1450 1453
1567 1567 1567 1566 1566 1566 1566 1565 1565 1564 1563 1562 1561 1560 1559 1558 1556 1555 1553 1552 1550 1547 1545 1542 1540 1537 1534 1530 1527 1523 1520 1516 1512 1509 1505 1501 1497 1493 1488 1483 1478 1473 1469 1465 1461 1458 1455 1451 1448 1445 1443 1440 1438 1436 1434 1432 1430 1429 1428 1428 1428 1428 1429 1430 1431 1432 1434 1436 1437 1439 1441 1443 1445 1448
1568 1567 1567 1567 1566 1566 1566 1566 1565 1564 1563 1562 1561 1560 1559 1558 1556 1555 1553 1551 1550 1547 1544 1542 1539 1536 1532 1529 1526 1522 1518 1516 1512 1508 1503 1499 1495 1491 1487 1482 1476 1470 1465 1461 1459 1456 1452 1448 1444 1441 1439 1436 1434 1431 1429 1427 1426 1424 1423 1423 1422 1422 1423 1424 1426 1427 1428 1429 1432 1434 1435 1438 1441 1443
1568 1567 1567 1567 1567 1567 1566 1566 1565 1564 1563 1562 1561 1560 1559 1558 1556 1555 1553 1552 1550 1547 1544 1541 1538 1535 1532 1529 1525 1521 1517 1513 1509 1506 1503 1499 1494 1489 1484 1481 1476 1469 1464 1460 1457 1454 1449 1445 1441 1438 1435 1433 1430 1427 1425 1423 1421 1420 1419 1419 1418 1417 1417 1418 1419 1421 1422 1423 1426 1428 1430 1432 1435 1438
1568 1568 1567 1567 1567 1567 1566 1566 1565 1564 1563 1562 1561 1560 1559 1558 1556 1555 1553 1551 1549 1547 1544 1540 1537 1534 1531 1527 1524 1521 1517 1512 1507 1504 1501 1497 1493 1487 1482 1479 1475 1470 1464 1460 1456 1451 1446 1441 1438 1435 1432 1429 1426 1424 1421 1419 1417 1416 1415 1414 1414 1413 1413 1413 1413 1415 1416 1417 1419 1422 1424 1427 1430 1432
1568 1567 1567 1567 1567 1567 1566 1565 1565 1564 1563 1562 1561 1560 1558 1557 1556 1554 1553 1551 1548 1546 1543 1539 1536 1533 1531 1527 1524 1521 1517 1514 1510 1505 1498 1492 1489 1486 1481 1477 1474 1469 1463 1458 1454 1449 1444 1439 1436 1432 1429 1426 1423 1421 1418 1415 1413 1412 1411 1410 1410 1409 1408 1408 1408 1409 1410 1411 1412 1415 1418 1421 1424 1427
1567 1567 1567 1567 1567 1566 1566 1565 1564 1563 1562 1561 1560 1560 1558 1557 1555 1554 1552 1550 1547 1545 1542 1539 1536 1533 1530 1528 1524 1520 1516 1512 1509 1505 1499 1492 1487 1483 1480 1475 1471 1467 1461 1456 1451 1447 1441 1437 1434 1431 1427 1424 1421 1418 1415 1413 1410 1409 1408 1406 1405 1405 1404 1403 1403 1404 1405 1406 1406 1408 1411 1415 1418 1422
1567 1567 1567 1567 1567 1566 1566 1565 1564 1563 1562 1561 1560 1559 1558 1557 1555 1553 1552 1549 1547 1544 1542 1539 1536 1533 1530 1528 1524 1519 1516 1512 1507 1504 1500 1494 1488 1483 1479 1475 1471 1467 1461 1454 1449 1445 1440 1435 1432 1429 1426 1422 1419 1415 1412 1411 1409 1406 1404 1403 1401 1400 1399 1398 1398 1398 1400 1402 1402 1402 1404 1408 1412 1416
1567 1567 1567 1567 1567 1566 1566 1565 1564 1563 1562 1561 1560 1559 1557 1556 1555 1553 1551 1549 1546 1544 1541 1539 1536 1533 1530 1528 1524 1520 1517 1513 1509 1503 1498 1492 1487 1483 1477 1473 1470 1466 1460 1453 1448 1444 1440 1434 1430 1427 1423 1419 1416 1413 1410 1408 1405 1402 1399 1397 1396 1395 1394 1393 1393 1393 1394 1396 1398 1398 1398 1402 1406 1410
1566 1567 1567 1567 1566 1566 1566 1565 1564 1563 1562 1561 1560 1559 1557 1556 1554 1552 1551 1549 1547 1544 1541 1539 1536 1533 1531 1528 1525 1521 1518 1513 1509 1504 1498 1493 1487 1481 1476 1470 1466 1463 1459 1453 1447 1443 1440 1434 1428 1424 1421 1417 1413 1410 1407 1403 1400 1397 1394 1392 1390 1389 1389 1389 1388 1388 1388 1390 1393 1394 1394 1396 1400 1404
1566 1566 1566 1566 1566 1566 1566 1565 1565 1564 1563 1562 1561 1560 1558 1557 1555 1552 1550 1548 1546 1544 1541 1539 1537 1534 1531 1528 1525 1522 1517 1513 1509 1504 1500 1495 1488 1482 1478 1472 1466 1461 1457 1453 1446 1441 1437 1433 1426 1421 1418 1414 1410 1406 1402 1399 1395 1392 1390 1387 1385 1384 1383 1383 1383 1383 1383 1385 1388 1390 1390 1391 1395 1399
1566 1566 1566 1566 1566 1566 1565 1565 1564 1564 1563 1562 1561 1560 1559 1557 1556 1554 1552 1549 1547 1544 1542 1540 1537 1535 1531 1528 1525 1522 1518 1513 1509 1504 1500 1495 1489 1483 1478 1474 1468 1462 1457 1452 1446 1440 1435 1430 1424 1418 1415 1411 1407 1403 1399 1395 1391 1388 1386 1383 1381 1379 1378 1378 1378 1379 1379 1380 1382 1385 1386 1387 1390 1394
1565 1566 1566 1566 1565 1565 1565 1565 1564 1564 1563 1562 1561 1560 1559 1558 1556 1555 1553 1551 1548 1546 1543 1541 1538 1535 1532 1529 1526 1523 1519 1515 1510 1506 1500 1494 1489 1484 1479 1475 1471 1465 1459 1453 1446 1438 1432 1427 1422 1416 1413 1409 1404 1400 1396 1391 1387 1384 1382 1380 1377 1375 1374 1373 1373 1374 1374 1376 1377 1380 1382 1383 1385 1389
1565 1565 1565 1565 1565 1565 1564 1564 1564 1563 1563 1562 1561 1560 1559 1558 1556 1555 1553 1551 1549 1546 1544 1541 1539 1536 1533 1530 1526 1523 1519 1516 1512 1508 1502 1495 1490 1485 1479 1476 1471 1466 1459 1453 1446 1438 1430 1425 1421 1415 1410 1406 1400 1396 1392 1388 1384 1381 1378 1375 1373 1371 1369 1368 1368 1369 1370 1372 1373 1375 1377 1378 1381 1385
1564 1564 1564 1564 1564 1564 1564 1564 1563 1563 1562 1562 1561 1560 1559 1558 1556 1555 1553 1551 1549 1546 1544 1542 1539 1537 1534 1530 1527 1524 1520 1516 1512 1507 1501 1497 1491 1484 1479 1474 1470 1464 1458 1453 1446 1438 1430 1425 1420 1413 1407 1402 1396 1392 1389 1385 1381 1377 1374 1372 1369 1367 1365 1364 1364 1365 1366 1368 1369 1371 1373 1374 1376 1380
1564 1564 1564 1564 1564 1564 1564 1563 1563 1563 1562 1561 1560 1559 1559 1558 1556 1555 1554 1552 1550 1548 1546 1543 1540 1538 1535 1532 1528 1524 1520 1516 1510 1505 1500 1495 1489 1483 1479 1474 1468 1462 1458 1452 1446 1438 1431 1425 1419 1412 1406 1400 1394 1390 1386 1382 1378 1374 1371 1369 1367 1365 1362 1361 1361 1362 1363 1364 1365 1367 1369 1370 1372 1376
1563 1563 1563 1563 1563 1563 1563 1563 1563 1562 1562 1561 1560 1559 1558 1557 1556 1555 1554 1552 1551 1549 1547 1544 1542 1539 1535 1532 1528 1524 1520 1516 1510 1505 1501 1496 1490 1484 1479 1474 1468 1463 1457 1452 1445 1438 1431 1425 1418 1411 1404 1399 1395 1391 1385 1380 1376 1372 1369 1366 1364 1363 1361 1359 1358 1359 1360 1361 1362 1364 1365 1366 1368 1371
1562 1562 1562 1562 1563 1563 1562 1562 1562 1562 1561 1560 1560 1559 1558 1557 1556 1555 1553 1551 1550 1548 1546 1543 1541 1538 1534 1531 1527 1523 1519 1515 1511 1507 1502 1497 1491 1486 1480 1475 1468 1461 1456 1451 1444 1437 1431 1426 1420 1412 1403 1394 1390 1388 1384 1379 1374 1371 1367 1364 1361 1360 1359 1357 1357 1357 1357 1358 1359 1360 1362 1363 1364 1367
1561 1561 1562 1562 1562 1562 1562 1561 1561 1561 1561 1560 1559 1558 1558 1557 1556 1554 1553 1551 1549 1547 1545 1542 1539 1536 1533 1529 1526 1522 1518 1515 1511 1507 1503 1498 1493 1488 1482 1476 1470 1464 1457 1452 1445 1438 1433 1428 1422 1417 1410 1400 1391 1385 1382 1378 1374 1369 1365 1361 1359 1357 1356 1355 1355 1355 1355 1355 1356 1357 1359 1360 1361 1363
1560 1561 1561 1561 1561 1561 1561 1560 1560 1560 1560 1559 1559 1558 1557 1556 1555 1553 1552 1550 1549 1546 1544 1541 1538 1535 1532 1529 1525 1522 1518 1515 1511 1507 1503 1499 1495 1490 1484 1478 1472 1466 1460 1454 1447 1441 1435 1429 1423 1417 1412 1406 1397 1388 1382 1378 1374 1369 1365 1361 1357 1355 1355 1354 1353 1353 1353 1352 1353 1354 1355 1357 1358 1360
1559 1560 1560 1560 1560 1560 1560 1560 1560 1559 1559 1558 1558 1557 1557 1555 1554 1553 1551 1550 1548 1546 1544 1541 1538 1535 1532 1528 1525 1521 1518 1514 1511 1507 1503 1499 1496 1492 1488 1482 1475 1468 1462 1456 1450 1443 1437 1431 1426 1418 1411 1405 1399 1392 1384 1378 1373 1368 1364 1360 1357 1355 1354 1353 1352 1352 1352 1351 1351 1351 1352 1354 1356 1358
1558 1559 1559 1559 1559 1559 1559 1559 1559 1558 1558 1558 1557 1557 1556 1555 1553 1552 1550 1549 1547 1545 1543 1540 1538 1534 1531 1528 1524 1521 1518 1514 1511 1507 1503 1499 1495 1492 1488 1484 1478 1472 1465 1459 1453 1447 1440 1434 1428 1422 1415 1407 1400 1394 1387 1380 1374 1368 1363 1360 1358 1356 1353 1352 1351 1350 1351 1351 1351 1350 1351 1353 1355 1357
1557 1557 1558 1558 1558 1558 1558 1558 1558 1558 1557 1557 1556 1556 1555 1554 1552 1551 1550 1548 1546 1544 1542 1540 1537 1534 1531 1528 1524 1521 1518 1514 1510 1506 1503 1500 1495 1491 1487 1483 1477 1472 1467 1461 1454 1449 1443 1437 1430 1424 1418 1411 1404 1398 1390 1384 1377 1371 1365 1360 1357 1355 1353 1350 1349 1349 1349 1350 1351 1351 1351 1352 1354 1356
1556 1556 1557 1557 1557 1557 1557 1557 1557 1557 1556 1556 1555 1555 1554 1553 1551 1550 1549 1547 1545 1543 1541 1539 1536 1534 1531 1528 1525 1522 1518 1513 1509 1506 1503 1499 1495 1490 1486 1481 1477 1473 1469 1463 1456 1451 1445 1438 1431 1425 1419 1413 1408 1402 1394 1387 1380 1374 1368 1362 1357 1355 1353 1350 1348 1348 1349 1350 1351 1351 1352 1353 1354 1355
1554 1555 1555 1556 1556 1556 1556 1556 1556 1556 1555 1555 1554 1554 1553 1552 1551 1549 1548 1546 1544 1542 1540 1538 1536 1533 1530 1528 1525 1521 1517 1513 1510 1506 1502 1498 1494 1489 1484 1479 1476 1473 1469 1464 1458 1453 1447 1441 1433 1426 1419 1414 1410 1404 1397 1390 1382 1376 1370 1364 1359 1356 1353 1350 1349 1348 1349 1350 1351 1352 1353 1354 1355 1356
1553 1554 1554 1555 1555 1555 1555 1555 1555 1555 1554 1554 1553 1553 1552 1551 1550 1549 1547 1545 1543 1541 1539 1537 1535 1532 1530 1527 1524 1521 1517 1514 1510 1506 1502 1498 1493 1489 1484 1479 1475 1472 1468 1464 1459 1454 1449 1443 1435 1427 1421 1416 1410 1405 1399 1393 1385 1378 1372 1367 1363 1359 1356 1353 1350 1350 1350 1352 1353 1353 1354 1355 1356 1357
1551 1552 1553 1553 1553 1554 1554 1554 1554 1553 1553 1552 1552 1552 1551 1550 1549 1548 1546 1544 1542 1540 1538 1536 1534 1531 1529 1526 1523 1520 1517 1514 1511 1507 1503 1499 1494 1490 1485 1480 1476 1472 1467 1462 1458 1454 1450 1445 1438 1430 1424 1419 1413 1406 1400 1395 1388 1381 1375 1370 1366 1362 1359 1356 1354 1352 1352 1353 1353 1354 1354 1355 1356 1357
1550 1551 1551 1552 1552 1552 1553 1553 1553 1552 1552 1551 1551 1551 1550 1549 1548 1547 1545 1543 1542 1540 1538 1536 1533 1531 1529 1526 1523 1520 1517 1514 1511 1507 1503 1499 1495 1491 1486 1482 1478 1474 1468 1463 1458 1454 1449 1445 1440 1434 1429 1424 1417 1410 1403 1396 1390 1384 1379 1374 1369 1365 1362 1360 1358 1356 1355 1355 1355 1355 1355 1356 1357 1358
1549 1549 1550 1550 1550 1550 1551 1551 1551 1551 1550 1550 1550 1549 1549 1548 1547 1545 1544 1542 1541 1539 1537 1535 1533 1530 1528 1525 1523 1520 1517 1514 1511 1508 1504 1500 1496 1492 1488 1484 1480 1476 1471 1466 1461 1456 1451 1446 1441 1436 1431 1426 1421 1415 1408 1401 1395 1390 1384 1379 1374 1370 1367 1364 1362 1360 1358 1358 1358 1357 1357 1357 1358 1359
1547 1547 1548 1548 1548 1549 1549 1549 1549 1549 1549 1548 1548 1547 1547 1546 1545 1544 1543 1541 1540 1538 1536 1534 1532 1530 1527 1525 1522 1520 1517 1514 1511 1508 1504 1501 1497 1493 1490 1486 1482 1477 1472 1468 1464 1459 1454 1448 1442 1436 1431 1427 1424 1419 1413 1407 1401 1395 1389 1383 1379 1375 1372 1370 1367 1365 1362 1361 1360 1360 1360 1360 1360 1361
1545 1545 1546 1546 1546 1547 1547 1547 1547 1547 1547 1546 1546 1546 1545 1544 1543 1542 1541 1540 1538 1537 1535 1533 1531 1529 1527 1525 1522 1519 1517 1514 1511 1508 1505 1502 1498 1495 1491 1487 1483 1479 1474 1471 1467 1462 1458 1452 1445 1439 1434 1431 1427 1423 1418 1412 1408 1402 1396 1390 1386 1381 1378 1376 1373 1370 1367 1365 1363 1362 1362 1363 1363 1363
1543 1543 1544 1544 1544 1544 1544 1545 1545 1545 1544 1544 1544 1543 1543 1542 1541 1541 1540 1538 1537 1535 1534 1532 1530 1528 1526 1524 1521 1519 1516 1514 1511 1508 1505 1502 1499 1495 1492 1488 1484 1480 1476 1473 1469 1465 1461 1456 1450 1445 1440 1436 1432 1428 1423 1419 1415 1410 1404 1399 1394 1389 1386 1384 1379 1376 1373 1371 1369 1367 1367 1366 1366 1365
1541 1541 1542 1542 1542 1542 1542 1542 1542 1542 1542 1542 1542 1541 1541 1540 1539 1539 1538 1537 1535 1534 1532 1531 1529 1527 1525 1523 1521 1518 1516 1514 1511 1508 1505 1502 1499 1496 1493 1489 1486 1482 1478 1475 1471 1468 1464 1459 1454 1450 1445 1441 1438 1433 1429 1424 1419 1416 1411 1407 1402 1398 1394 1390 1386 1383 1381 1378 1376 1374 1372 1370 1368 1368
1539 1539 1539 1539 1540 1540 1540 1540 1540 1540 1540 1540 1540 1539 1539 1538 1537 1537 1536 1535 1534 1532 1531 1530 1528 1526 1524 1522 1520 1518 1515 1513 1511 1508 1506 1503 1500 1497 1494 1490 1487 1483 1480 1476 1472 1469 1465 1461 1457 1454 1451 1447 1442 1438 1434 1430 1426 1423 1418 1413 1408 1403 1399 1395 1392 1390 1387 1384 1380 1378 1376 1374 1372 1371
1537 1537 1537 1537 1538 1538 1538 1538 1538 1538 1538 1538 1537 1537 1536 1536 1535 1535 1534 1533 1532 1531 1529 1528 1527 1525 1523 1521 1519 1517 1515 1512 1510 1508 1505 1503 1500 1497 1494 1491 1488 1484 1481 1477 1474 1470 1467 1464 1461 1458 1455 1450 1445 1442 1439 1436 1432 1429 1424 1419 1414 1409 1405 1401 1397 1393 1390 1387 1384 1381 1379 1377 1375 1373
1534 1534 1535 1535 1535 1536 1536 1536 1536 1536 1536 1535 1535 1534 1534 1533 1533 1532 1532 1531 1530 1529 1528 1526 1525 1523 1522 1520 1518 1516 1514 1511 1509 1507 1505 1502 1500 1497 1495 1492 1489 1486 1482 1479 1476 1472 1469 1467 1464 1461 1457 1452 1448 1445 1442 1438 1434 1431 1428 1424 1420 1415 1411 1407 1403 1398 1395 1391 1388 1384 1381 1379 1377 1376
1531 1532 1532 1533 1533 1534 1534 1534 1534 1534 1533 1533 1532 1532 1531 1531 1530 1530 1529 1528 1528 1527 1526 1525 1523 1522 1520 1519 1517 1515 1512 1510 1508 1506 1504 1501 1499 1497 1494 1492 1489 1486 1483 1480 1477 1475 1472 1469 1465 1461 1458 1454 1451 1447 1444 1440 1438 1435 1431 1428 1424 1420 1416 1412 1408 1404 1400 1395 1391 1387 1385 1383 1380 1379
1529 1529 1530 1530 1531 1531 1531 1531 1531 1531 1531 1530 1530 1529 1529 1528 1527 1527 1527 1526 1525 1525 1524 1523 1522 1520 1519 1517 1515 1513 1511 1509 1507 1505 1502 1500 1498 1495 1493 1491 1489 1487 1484 1481 1479 1476 1473 1470 1466 1463 1459 1456 1453 1450 1448 1445 1442 1439 1435 1431 1428 1424 1420 1417 1413 1409 1406 1402 1398 1395 1393 1390 1387 1386
1526 1527 1527 1528 1528 1528 1529 1529 1529 1528 1528 1528 1527 1527 1526 1525 1525 1524 1524 1524 1523 1523 1522 1521 1520 1518 1517 1516 1514 1512 1510 1508 1506 1504 1501 1499 1497 1495 1492 1490 1488 1486 1484 1481 1479 1476 1474 1471 1467 1464 1461 1458 1456 1453 1450 1447 1444 1442 1439 1435 1431 1427 1424 1421 1418 1414 1411 1408 1405 1403 1401 1398 1396 1396
1524 1524 1525 1525 1525 1526 1526 1526 1526 1525 1525 1525 1524 1524 1523 1522 1522 1522 1522 1521 1521 1520 1519 1519 1518 1517 1515 1514 1512 1510 1509 1507 1505 1503 1500 1498 1496 1494 1491 1489 1487 1485 1483 1481 1478 1476 1474 1471 1469 1466 1463 1460 1458 1455 1452 1450 1447 1444 1441 1438 1434 1431 1428 1425 1422 1419 1416 1413 1411 1410 1408 1406 1405 1404
Wind_Speed
11 11 11 12 14 17 18 19 20 20 20 19 19 19 21 21 22 22 20 20 25 28 29 30 30 30 30 31 31 31 31 32 33 34 35 36 38 39 38 38 38 37 35 33 32 31 30 29 28 27 25 24 24 24 23 21 22 24 25 26 24 25 27 29 31 32 31 29 31 36 37 37 38 39
11 11 12 14 16 18 18 19 19 19 19 19 19 20 22 22 23 23 19 18 23 29 29 29 31 31 31 30 30 31 31 32 33 35 37 38 39 40 41 42 42 41 39 37 36 34 32 30 29 28 26 25 23 24 23 22 21 21 23 25 26 26 27 28 30 33 33 31 29 35 41 42 39 39
11 12 13 15 17 18 18 18 18 18 18 19 20 21 22 23 23 25 23 20 23 29 30 30 30 31 30 30 32 32 32 33 35 36 39 40 42 43 44 45 45 43 41 39 37 34 32 30 29 28 27 25 23 23 23 23 22 21 21 23 25 26 27 28 28 31 34 33 31 32 39 44 41 39
12 12 14 15 17 18 17 17 17 18 19 20 21 22 23 24 24 25 26 25 27 29 30 30 30 30 31 31 33 34 34 35 36 37 39 42 44 46 47 48 47 45 43 40 36 33 31 30 29 28 27 25 24 23 22 23 23 22 21 22 24 27 28 29 28 29 32 35 34 32 36 41 41 39
12 13 14 15 17 17 16 17 17 18 19 20 21 22 23 24 24 25 26 27 29 30 30 30 30 31 32 33 34 36 37 38 39 40 41 43 46 49 49 49 48 46 43 39 36 33 32 32 31 29 28 27 26 24 23 23 24 24 24 22 24 26 28 30 30 30 31 34 37 35 35 38 40 40
12 12 13 15 16 16 16 16 17 18 19 20 21 22 23 23 24 25 26 26 29 31 31 30 31 32 33 34 35 37 40 41 42 43 44 47 49 50 51 51 49 45 42 39 37 36 35 36 34 32 30 29 27 26 25 25 25 25 26 25 25 26 29 31 32 32 31 33 36 38 37 37 38 40
12 12 13 14 15 15 15 16 17 18 19 20 21 22 22 23 24 25 26 26 28 30 32 31 32 33 34 35 37 39 41 42 44 46 47 50 51 52 54 51 43 39 40 40 38 36 36 36 34 32 31 29 28 27 26 27 27 26 27 28 27 27 29 32 33 34 34 33 35 38 39 38 37 38
11 12 13 14 14 14 14 16 17 18 19 20 21 21 22 23 24 24 25 26 27 29 31 32 32 34 35 36 38 40 41 42 44 45 48 52 52 53 54 44 33 35 40 39 36 35 35 35 33 31 30 29 28 26 25 25 27 28 28 28 29 28 28 31 34 35 36 35 34 36 39 39 38 37
11 11 12 13 13 13 14 16 17 18 19 20 20 21 22 23 23 24 25 26 27 28 30 32 33 35 36 37 38 39 41 44 45 43 45 50 53 55 52 38 30 34 37 34 33 33 33 33 31 30 29 29 29 25 22 22 24 26 27 27 29 29 28 30 33 35 36 37 36 35 37 39 39 39
10 11 12 12 12 13 15 16 17 18 18 19 20 21 22 22 23 24 25 26 27 28 30 33 35 36 37 38 39 39 42 44 44 43 47 51 53 53 47 36 32 32 32 32 32 30 30 31 29 28 29 29 27 26 24 23 21 21 23 24 26 29 30 30 31 34 36 38 39 37 37 38 39 40
10 10 12 12 12 14 15 16 17 17 18 18 20 20 21 22 23 24 26 27 28 30 31 33 35 36 37 36 37 39 40 38 39 43 50 55 54 49 41 36 34 32 31 33 32 29 30 30 27 27 28 26 26 28 27 24 22 20 19 19 21 24 27 30 31 32 35 37 39 39 38 37 38 40
9 10 11 12 13 14 15 16 16 17 17 18 19 20 21 22 23 25 26 28 29 30 32 33 34 35 35 33 35 39 39 39 41 45 50 52 51 47 42 38 35 32 31 32 31 29 29 29 27 26 25 24 25 27 26 23 21 20 20 20 20 21 24 27 30 31 34 37 39 40 39 38 38 39
9 10 11 12 13 14 15 15 16 16 17 18 19 20 20 22 23 25 26 28 29 30 31 32 33 34 34 33 36 38 39 42 44 48 50 49 47 45 41 37 34 31 30 31 31 31 31 30 28 26 25 24 24 24 23 21 20 22 24 25 23 23 24 25 27 30 32 35 38 41 40 39 38 38
8 10 11 12 13 14 14 14 15 16 16 17 18 19 20 22 23 24 26 27 28 30 31 32 32 33 33 34 35 36 38 41 44 48 51 50 47 46 42 38 34 29 28 31 32 31 32 32 31 29 28 26 24 22 21 21 24 27 28 27 24 24 25 26 27 28 30 33 37 40 41 39 38 38
8 9 10 11 12 13 13 14 14 15 15 16 17 17 19 20 22 23 25 26 27 29 30 31 31 31 32 34 34 34 37 40 43 47 50 49 48 48 44 40 36 32 30 32 32 32 33 34 32 30 29 27 26 24 24 26 30 31 29 27 25 25 26 27 28 28 29 31 34 39 41 40 38 38
7 8 9 10 11 12 12 13 13 14 14 14 15 16 17 18 20 22 23 25 26 28 29 30 30 29 31 33 33 33 36 39 42 46 48 47 48 48 42 36 35 35 33 31 31 32 35 35 33 31 30 28 27 27 28 31 32 30 27 25 24 24 25 27 29 29 30 30 32 36 41 41 38 38
6 7 7 8 10 11 12 12 13 13 13 14 14 15 16 17 19 20 21 23 24 26 28 29 29 28 29 31 31 32 34 37 41 44 47 47 48 48 42 35 35 35 33 31 31 34 37 36 32 32 32 30 28 28 29 31 31 27 24 22 22 23 24 26 29 30 30 30 30 33 39 42 39 38
5 6 6 7 8 10 10 11 12 12 12 13 14 15 16 17 18 19 20 21 23 24 26 27 28 28 28 29 30 30 32 35 37 41 46 48 49 47 40 33 32 32 30 30 33 37 42 39 31 30 32 31 30 29 29 30 29 26 23 22 22 22 23 25 27 30 30 30 29 30 35 41 40 38
4 4 5 6 7 9 9 9 10 11 12 13 14 15 16 17 19 19 20 22 22 24 25 26 27 27 27 27 28 29 30 32 34 38 43 46 47 45 37 30 29 29 27 29 34 40 44 39 31 31 33 32 31 29 27 29 29 27 24 24 23 22 22 25 27 28 29 29 27 27 32 38 40 39
3 3 4 5 6 7 8 8 9 10 11 12 13 14 15 16 18 19 20 21 22 23 24 24 25 26 26 26 26 27 29 30 33 38 42 46 47 43 36 32 31 28 25 29 35 41 43 39 33 33 33 32 32 30 27 27 28 27 24 23 24 23 22 24 26 27 28 27 26 25 29 35 39 39
2 2 2 3 4 6 6 6 8 9 10 11 12 13 14 15 17 18 19 20 20 22 22 23 23 24 26 26 26 27 28 30 34 39 42 46 49 44 37 33 33 32 30 33 38 41 42 41 38 35 32 30 29 30 28 27 26 26 23 21 22 21 19 21 23 25 26 26 26 25 26 32 36 37
2 1 1 1 3 4 5 5 6 8 9 10 11 12 14 15 17 18 19 20 21 21 22 22 23 24 25 27 27 29 30 31 34 37 40 45 48 46 40 35 34 36 36 36 40 42 43 45 44 39 34 30 27 27 29 28 26 25 23 21 20 19 17 17 20 23 24 25 24 24 25 29 33 35
3 2 1 0 1 3 3 4 6 7 8 9 10 12 13 15 17 18 19 21 22 23 24 24 24 25 26 28 29 31 32 33 34 36 38 42 45 47 45 40 37 39 39 39 44 44 43 46 47 43 41 39 36 32 30 28 26 24 25 26 22 17 15 16 18 21 24 24 23 23 24 28 31 33
3 2 2 1 1 2 3 4 6 6 7 9 10 11 13 14 16 17 18 20 22 24 25 26 27 27 28 29 31 32 33 34 34 35 37 40 43 45 46 44 42 42 42 45 47 44 42 44 46 45 43 40 38 37 32 28 27 27 27 27 23 18 15 14 15 16 20 23 23 23 23 26 30 30
4 3 3 2 1 2 3 4 6 6 8 8 9 11 12 13 15 17 18 19 21 23 26 27 28 28 29 30 31 32 33 34 34 35 36 38 40 42 45 46 46 46 46 47 47 44 42 43 44 46 45 38 35 37 36 31 31 29 27 24 22 18 15 14 13 12 14 16 19 20 21 24 28 28
5 4 4 3 2 2 3 4 6 6 8 8 9 10 11 13 15 17 18 19 21 23 25 27 28 28 29 30 31 32 34 34 34 34 36 37 39 40 42 44 46 47 47 47 47 45 43 43 43 45 46 42 38 37 38 37 34 32 29 24 17 13 12 11 12 11 10 10 12 15 17 20 23 25
5 5 4 3 3 3 3 5 6 7 7 8 9 10 11 13 15 16 18 19 21 23 25 26 27 28 29 30 31 32 34 34 34 34 35 36 38 39 40 42 45 47 46 46 46 44 42 41 42 42 44 45 43 41 41 40 37 36 34 25 14 13 13 9 10 10 9 7 7 9 12 14 16 19
6 5 4 4 3 3 4 5 6 7 7 8 9 10 12 13 15 16 17 19 20 22 24 25 27 28 28 29 30 31 32 34 35 36 35 36 37 39 40 43 46 48 48 47 47 45 42 40 41 43 45 45 45 45 43 41 39 39 36 27 15 15 16 9 8 9 7 4 5 6 8 9 11 13
6 5 4 4 4 4 5 5 5 6 7 8 9 10 12 13 15 16 17 19 20 22 23 24 25 26 27 28 29 30 32 34 36 37 36 36 38 39 41 44 46 48 48 49 49 47 43 40 40 44 47 46 46 48 45 42 41 39 37 32 22 17 17 11 4 6 5 2 2 3 4 5 7 10
6 5 5 5 5 5 6 6 6 6 7 8 9 10 11 13 14 16 18 19 20 21 22 24 25 26 27 27 28 30 31 33 36 37 38 38 39 40 42 45 47 48 49 50 51 48 44 40 39 43 48 48 48 50 49 47 46 41 37 35 29 22 18 13 6 3 1 1 1 2 3 4 5 6
6 6 6 5 5 6 6 6 7 7 7 8 8 8 10 12 14 16 17 18 19 20 21 23 24 25 26 27 28 29 31 32 34 36 38 39 39 40 42 44 46 48 49 51 52 51 47 43 40 42 47 49 50 51 53 53 51 45 39 36 32 26 20 13 11 9 5 2 2 3 4 4 5 6
7 6 6 6 6 6 6 7 7 7 8 8 8 8 9 11 14 15 17 17 18 19 21 22 24 25 26 27 28 29 30 31 32 34 36 38 39 40 41 43 44 47 49 51 53 54 51 46 43 42 43 47 49 51 55 58 56 49 44 39 35 28 21 15 14 12 7 3 1 4 5 3 5 7
7 7 7 7 7 7 7 7 7 7 8 9 9 9 9 11 12 14 16 17 17 18 19 21 22 24 25 27 28 29 30 31 32 33 35 37 39 40 41 41 41 43 46 49 51 54 55 52 47 43 42 44 46 48 54 59 60 55 49 43 38 33 26 19 16 14 12 9 5 5 5 3 4 6
8 8 8 8 8 8 9 10 9 9 9 9 9 10 10 10 11 13 14 15 15 16 17 19 21 23 24 26 27 29 30 31 32 33 34 35 38 40 40 40 40 41 43 45 45 49 54 55 52 49 45 43 44 46 50 55 58 56 52 46 41 38 32 25 19 16 17 18 14 9 7 6 4 4
9 9 9 9 9 10 11 12 12 12 11 10 9 10 10 10 10 11 12 12 12 14 15 17 19 21 23 25 27 28 30 32 32 33 34 34 36 38 39 39 39 40 41 41 40 43 50 53 54 54 46 39 39 45 48 52 55 56 55 50 44 39 36 31 27 22 20 22 21 16 12 11 10 7
10 10 10 10 11 12 13 14 14 13 12 11 10 10 11 11 10 10 11 10 11 12 14 16 18 20 21 24 26 27 29 31 32 33 34 34 35 36 37 38 39 39 40 39 37 38 44 48 52 53 47 37 33 38 43 48 51 53 55 53 47 41 37 34 32 30 27 26 27 25 22 21 19 14
11 10 11 11 11 12 13 14 14 14 13 12 11 10 11 11 10 10 10 10 10 11 13 14 16 18 20 23 25 27 28 30 31 32 34 34 35 35 36 37 38 38 39 39 35 34 39 44 47 49 48 39 31 31 38 45 48 49 51 52 50 46 40 34 32 33 32 31 31 30 30 29 27 22
11 10 10 10 10 11 12 12 13 13 12 12 12 11 11 12 11 10 10 10 11 11 12 13 15 18 20 22 25 27 27 28 29 31 32 33 33 34 35 36 37 37 37 38 36 33 36 40 42 44 45 38 30 29 34 41 44 46 47 48 50 49 44 40 38 36 33 33 34 33 32 31 30 29
11 11 10 10 10 10 10 10 11 11 11 12 12 12 12 13 12 12 11 11 12 12 13 14 15 18 20 22 24 26 27 28 28 29 30 31 31 32 33 34 35 36 36 37 37 36 36 37 37 39 40 37 33 32 32 33 37 41 43 44 47 49 48 47 44 40 35 35 37 38 37 34 32 30
12 11 11 10 9 9 9 9 9 10 11 12 12 14 15 15 14 13 13 13 13 13 14 15 16 19 21 22 24 26 27 27 28 28 29 29 29 30 31 32 33 35 35 36 36 36 36 35 33 33 36 38 38 35 34 35 38 40 40 41 43 45 46 47 46 44 41 39 39 41 42 40 38 34
13 12 10 10 9 9 9 9 10 11 12 13 14 15 16 16 15 14 14 13 14 14 14 15 17 19 20 21 22 24 25 26 27 27 27 28 28 28 29 30 31 32 33 34 34 34 33 33 31 31 34 37 38 36 38 40 40 40 40 40 40 40 42 44 45 46 44 42 41 41 42 42 43 42
13 12 11 11 10 10 10 11 12 13 13 14 15 16 17 17 16 15 14 14 14 14 14 15 17 19 19 20 22 23 24 25 26 26 26 26 27 27 28 29 29 30 31 31 32 32 31 31 32 32 33 35 36 36 38 37 36 38 40 40 38 38 39 40 41 43 44 44 44 43 42 42 44 45
14 13 12 11 11 12 12 13 14 15 15 16 17 17 18 17 16 15 15 14 14 14 15 16 17 18 19 20 22 22 22 22 23 25 26 26 25 25 27 27 27 28 29 29 30 31 30 31 32 32 33 32 32 32 34 34 34 37 39 39 38 39 38 36 37 39 40 41 42 41 40 41 41 40
14 14 13 13 13 14 14 15 15 16 17 18 18 18 18 17 16 15 15 15 14 14 15 16 17 17 18 20 21 20 20 20 21 24 26 26 25 24 24 25 26 26 27 27 29 30 30 30 31 31 31 31 30 30 31 31 32 35 38 38 38 39 37 36 36 36 36 37 37 36 35 36 35 34
14 15 15 15 15 15 15 16 17 18 19 19 18 19 18 17 16 16 15 14 14 15 16 16 17 17 18 20 20 19 19 20 22 24 25 25 25 25 24 24 24 25 25 25 27 28 29 30 30 30 29 29 29 30 30 28 27 29 34 37 37 37 37 36 36 35 35 35 34 32 31 31 30 29
Wind_Direction
59 56 54 53 52 51 47 44 43 40 38 38 36 36 36 35 29 22 14 13 15 15 14 11 8 8 6 3 1 359 357 355 352 352 352 352 352 350 348 347 347 346 344 340 337 333 329 324 319 314 308 302 298 296 293 288 287 286 283 280 275 268 262 257 252 252 256 250 232 223 223 224 223 221
62 57 55 54 52 50 46 44 42 40 39 38 37 37 36 35 32 24 13 5 10 12 14 11 6 5 4 0 360 0 358 356 354 353 353 353 352 349 350 350 349 347 345 342 338 334 331 326 321 315 310 304 298 294 293 289 285 284 282 278 273 269 264 259 254 249 251 253 241 226 221 223 224 220
63 57 55 54 52 50 46 44 43 41 40 40 38 37 34 32 30 26 18 7 8 10 10 9 7 3 0 359 360 360 358 357 356 356 354 353 352 351 351 350 348 347 345 341 337 333 330 325 321 316 311 306 300 293 290 288 285 280 278 276 271 267 264 261 256 250 248 249 247 236 226 223 223 220
65 58 55 54 53 51 46 44 43 42 42 41 39 36 32 30 26 24 19 9 9 12 8 6 6 2 0 1 360 358 358 357 357 358 355 353 353 353 351 349 348 346 344 341 337 333 329 327 325 321 316 311 304 297 289 285 283 279 274 271 268 265 262 260 256 251 247 245 245 242 235 229 225 220
67 60 57 56 54 51 48 46 44 44 43 41 39 36 32 28 23 21 18 9 7 10 8 5 5 3 2 2 0 357 357 357 358 358 356 354 354 353 351 349 347 345 344 342 339 336 334 333 331 329 325 319 312 304 294 285 282 279 275 269 263 260 258 257 255 251 246 244 243 242 240 237 231 224
67 61 58 56 54 51 47 47 46 45 43 41 39 36 32 28 22 18 15 9 4 5 6 5 5 4 3 1 0 358 357 357 357 356 355 355 354 352 350 346 345 346 346 343 341 339 336 333 331 329 328 325 319 311 301 290 281 277 275 272 264 257 254 253 252 251 247 243 242 241 240 239 236 229
67 62 59 56 54 51 47 46 46 44 43 40 37 35 31 27 22 17 13 9 4 1 3 5 4 4 3 2 1 359 357 356 356 356 355 355 353 351 348 345 341 343 345 344 341 338 333 329 327 325 325 325 323 317 309 298 287 278 273 271 267 259 254 252 250 249 248 244 241 241 241 239 238 233
68 63 60 57 55 52 50 48 46 44 42 39 36 32 30 26 21 16 12 10 6 1 2 4 5 5 4 3 2 360 356 355 356 356 354 353 352 349 348 344 335 337 342 341 337 333 328 326 324 322 321 321 321 317 310 303 296 288 281 275 270 264 256 251 250 249 249 246 242 240 241 240 237 236
69 65 61 58 56 54 53 50 46 44 41 38 34 30 28 24 19 15 13 10 8 5 3 3 5 6 4 3 3 1 356 355 357 355 350 350 350 348 347 344 335 335 337 335 332 329 326 324 323 322 320 321 323 321 315 309 302 295 291 286 280 275 265 254 248 248 249 248 244 240 240 240 237 235
69 65 61 57 55 55 55 51 47 44 40 36 33 29 25 22 18 15 12 10 8 8 6 4 4 6 5 3 2 0 358 356 354 350 348 349 350 348 347 343 338 335 332 330 331 328 326 325 324 322 323 325 327 327 324 318 310 301 294 289 286 283 278 266 252 244 244 246 247 243 239 240 237 234
69 66 60 57 55 54 52 50 47 44 40 36 32 27 23 19 17 15 12 9 8 9 8 6 4 4 5 2 358 358 358 355 352 350 349 349 351 350 345 340 338 336 331 331 331 329 329 329 326 323 324 326 325 325 325 320 314 309 300 292 287 283 281 277 265 250 241 240 244 244 240 239 237 234
72 67 62 58 55 53 50 47 45 42 38 35 30 26 21 17 15 14 10 9 8 8 8 7 3 2 2 359 356 357 357 354 352 353 351 349 348 348 345 341 341 338 333 333 334 335 334 331 329 327 324 322 322 322 323 318 313 310 305 300 292 282 277 276 273 262 248 239 239 242 240 238 236 233
75 69 65 61 57 54 51 47 44 39 35 32 27 23 20 17 14 12 9 8 7 7 8 7 3 1 360 358 357 357 356 354 352 352 353 350 347 345 343 341 341 339 336 335 337 340 339 333 330 329 326 324 322 321 320 316 310 306 303 300 291 281 274 270 269 267 257 244 239 240 239 236 234 233
77 70 65 62 58 56 54 51 47 41 35 31 25 20 16 14 13 10 9 8 6 6 7 6 3 360 357 358 359 356 354 353 352 353 354 352 347 346 343 341 343 343 339 336 336 338 339 335 329 327 327 326 324 321 315 310 308 308 306 301 288 276 270 266 264 263 259 249 241 240 240 236 232 231
76 68 63 60 59 58 57 55 51 45 39 33 28 22 16 12 9 7 7 6 5 5 5 5 4 359 355 358 359 355 353 353 353 355 356 352 349 348 344 339 342 346 344 337 332 333 337 336 328 325 326 326 324 321 315 312 313 314 311 304 290 276 267 263 261 259 258 252 242 240 241 239 233 229
75 65 58 57 57 57 56 57 54 49 43 36 31 26 21 16 11 7 5 4 4 4 3 4 4 359 355 358 359 356 354 353 354 356 356 354 353 352 346 338 337 342 345 340 332 332 336 335 328 325 327 327 323 322 321 320 319 316 312 305 294 279 266 260 259 258 256 253 245 239 240 241 235 229
78 66 56 53 55 55 55 54 53 50 45 39 34 28 24 21 17 12 7 4 3 2 2 2 3 1 357 357 359 358 355 355 355 355 356 357 357 354 349 340 335 339 344 342 336 332 334 335 329 325 328 327 324 323 322 321 322 321 315 307 297 284 269 258 256 257 256 255 248 241 239 241 237 230
83 71 59 54 56 55 54 52 50 47 44 39 34 28 25 22 20 15 11 9 6 3 2 1 1 2 360 357 358 358 358 357 356 355 357 359 360 356 349 339 335 341 346 344 338 333 334 337 331 325 328 327 324 323 321 321 324 325 320 312 300 287 272 258 253 253 255 255 251 243 238 239 239 232
89 72 59 57 57 56 53 49 46 42 40 38 33 28 25 22 21 18 13 11 8 5 4 2 0 1 2 1 359 359 360 358 356 357 1 2 1 358 350 338 337 344 349 349 343 336 336 340 335 328 331 330 327 327 325 322 322 321 320 316 304 289 274 261 252 249 253 256 254 246 238 238 239 235
101 77 57 56 58 57 52 45 40 36 33 34 32 28 26 23 22 21 17 13 11 7 5 3 1 1 2 4 3 1 2 0 357 0 4 4 3 360 351 342 342 344 348 351 347 340 340 343 339 332 333 334 333 334 331 325 323 323 322 317 309 297 278 263 254 248 249 254 255 250 240 237 237 236
126 95 61 55 59 60 54 41 35 30 26 27 28 26 26 24 23 23 21 19 16 12 9 6 4 3 4 6 7 7 7 6 3 4 5 6 6 2 353 346 345 348 352 354 351 346 345 348 345 338 336 335 334 335 333 330 329 329 327 321 313 306 288 267 257 251 250 251 252 249 241 237 236 235
165 139 86 59 61 59 51 38 31 24 18 20 21 22 22 21 20 18 18 18 17 13 10 8 6 6 6 7 9 10 11 11 10 8 6 7 9 6 358 349 346 350 355 357 354 350 349 352 352 347 341 338 337 338 336 334 332 330 329 325 317 313 302 278 259 253 253 255 256 253 243 235 234 234
190 187 199 86 59 47 37 29 24 18 13 13 14 16 18 17 15 12 10 11 10 8 6 4 4 6 7 8 10 10 11 12 13 11 9 9 10 9 4 358 352 351 355 358 358 355 352 355 357 355 349 341 338 341 341 338 337 335 333 329 319 310 308 296 275 261 257 259 263 262 250 236 231 231
201 207 224 246 328 14 15 13 11 7 6 7 8 10 12 11 9 8 7 6 4 2 1 1 2 5 7 9 10 10 11 12 12 12 11 11 12 10 9 6 2 359 359 1 1 358 355 357 359 360 357 346 337 340 344 345 346 344 341 337 326 311 302 300 293 281 269 264 263 263 255 240 230 227
204 213 229 248 291 340 355 0 358 355 357 1 1 3 5 4 3 3 3 1 359 358 358 359 1 4 6 8 10 10 10 11 11 11 11 12 13 12 12 11 8 6 5 5 3 360 358 1 1 1 1 354 344 343 346 351 355 354 351 346 335 323 312 299 294 292 286 278 269 261 255 243 232 226
207 215 228 245 282 317 336 345 345 348 352 353 354 356 357 357 359 358 356 356 355 355 355 357 0 3 5 8 9 8 9 10 10 11 11 12 13 14 15 15 13 10 8 8 7 3 1 3 6 4 2 360 354 351 350 353 358 1 2 0 353 348 338 307 289 290 286 281 275 262 252 243 235 229
209 216 226 245 273 295 316 331 337 343 347 347 347 349 350 352 354 354 352 351 351 351 353 356 359 2 4 6 7 7 7 8 10 12 11 10 12 14 14 16 18 17 13 11 11 8 3 5 10 11 8 5 1 358 356 357 360 2 3 6 10 5 351 306 275 289 289 273 271 263 249 240 237 234
209 216 227 244 263 281 302 318 328 335 339 342 343 344 346 350 352 350 348 348 348 349 351 353 356 360 2 3 5 5 5 6 9 12 12 10 12 13 13 16 19 19 17 16 15 11 6 6 11 16 17 13 7 3 0 1 5 6 4 5 10 7 1 336 278 289 301 278 258 252 239 232 233 234
210 216 227 245 259 275 292 306 317 325 332 337 340 342 346 351 350 347 346 346 346 347 348 349 352 356 358 0 2 3 5 7 8 9 10 11 12 12 13 16 18 18 18 19 19 14 9 8 12 17 21 20 13 8 5 5 10 14 12 10 10 11 13 14 325 295 315 317 270 257 244 226 223 230
213 219 231 244 256 270 283 294 303 312 320 329 335 343 348 351 351 348 346 346 345 345 346 347 350 352 355 357 360 2 6 8 7 7 8 10 11 10 11 14 15 15 17 20 21 18 14 12 14 18 21 20 17 14 13 12 15 20 21 19 18 17 18 31 63 81 39 253 228 242 240 215 205 216
216 225 237 247 256 268 279 289 296 301 308 316 327 340 346 347 349 349 347 347 346 346 347 349 351 353 355 357 359 1 5 7 7 7 7 9 10 10 11 12 12 11 14 18 20 20 18 17 19 21 22 20 18 16 17 18 20 24 27 28 28 25 23 37 70 86 99 150 220 233 225 218 224 229
220 230 241 252 263 272 280 288 295 301 307 311 318 329 337 341 344 347 347 349 350 350 351 353 355 356 358 360 0 2 4 5 6 6 7 8 10 11 12 11 9 8 11 14 17 19 20 21 24 26 25 22 19 18 19 21 24 27 29 30 33 34 34 45 61 72 85 95 236 224 213 225 239 236
226 235 244 254 265 273 281 289 294 300 306 310 313 319 326 334 340 344 346 349 352 353 354 356 359 0 2 3 3 3 4 6 6 6 7 7 9 11 12 12 9 7 9 11 13 14 17 19 23 28 30 27 22 20 20 22 25 28 29 31 36 39 41 48 60 73 85 88 103 164 171 186 220 224
234 243 251 258 266 272 277 284 289 293 301 308 312 314 319 327 336 341 344 348 351 355 357 359 1 2 2 3 4 4 4 6 7 7 7 7 8 10 11 11 10 9 9 10 9 11 14 15 18 24 28 29 27 24 23 23 25 28 30 32 37 41 44 49 61 76 87 88 88 98 111 120 150 187
244 252 258 265 272 274 276 281 285 288 295 303 310 314 316 323 333 339 342 346 350 354 357 359 360 0 0 1 3 3 4 5 6 7 8 8 9 9 10 10 10 10 11 9 7 10 13 14 16 19 21 21 22 25 26 25 24 26 30 32 35 40 44 49 56 67 82 89 90 92 95 98 104 122
251 257 262 269 275 276 277 280 281 284 288 294 302 309 312 318 327 333 335 339 342 346 351 354 356 358 358 358 0 2 3 4 5 6 7 8 8 8 8 9 10 11 11 10 6 7 11 14 16 18 18 14 13 17 23 26 26 27 29 32 34 38 42 45 52 60 68 76 82 86 87 84 84 91
254 258 263 269 275 277 278 279 279 280 283 287 293 301 306 311 318 321 323 326 329 336 343 348 353 355 355 356 358 358 359 1 2 3 5 6 7 7 7 8 9 10 11 11 8 6 9 13 16 19 19 15 9 9 18 25 28 28 29 31 34 38 42 45 51 56 60 64 68 73 78 79 78 79
256 259 263 268 273 276 278 279 278 277 278 280 285 293 301 306 309 309 309 313 318 324 333 340 345 348 348 349 351 352 353 355 357 359 1 3 4 6 6 6 8 9 10 12 11 8 9 12 15 18 19 16 10 8 15 22 25 26 27 29 31 35 40 45 49 52 57 63 65 65 69 72 73 73
258 260 263 265 267 270 271 275 276 275 275 277 281 289 297 301 303 301 300 304 308 313 321 329 334 337 339 341 342 343 344 347 349 352 355 357 0 3 5 6 7 7 9 11 12 11 10 11 13 15 18 19 18 16 15 18 23 26 26 27 29 32 34 38 44 48 53 59 62 63 65 69 71 74
255 257 259 256 254 255 260 269 275 277 279 281 283 288 293 296 296 295 293 296 300 304 312 322 327 330 333 335 335 336 339 342 343 344 347 350 353 357 1 4 6 7 8 9 10 11 11 10 9 11 15 20 24 23 20 22 26 28 29 28 29 30 30 32 36 41 45 50 55 58 60 62 65 68
254 253 251 245 242 247 257 268 276 281 285 288 289 290 291 291 290 288 286 288 293 298 307 317 323 327 331 333 334 336 338 341 343 342 342 342 345 349 355 0 4 6 7 8 9 10 10 9 8 10 14 19 22 22 22 24 24 25 28 30 30 31 31 31 32 35 38 43 49 52 54 55 56 56
251 246 241 238 242 251 261 269 277 281 285 289 290 291 290 288 284 281 280 282 287 295 305 314 320 324 330 335 338 340 342 343 344 344 342 340 339 342 347 353 358 2 5 6 7 8 9 9 10 11 14 17 20 21 23 23 21 22 25 28 29 31 32 33 33 34 35 37 41 44 46 48 50 49
245 241 239 240 248 258 265 272 278 281 283 284 285 287 288 285 279 276 275 278 284 294 304 313 317 320 326 334 338 341 342 342 341 342 341 340 339 338 341 344 349 354 359 2 4 6 7 9 11 13 14 15 16 19 21 22 21 22 24 25 28 30 31 32 34 36 36 36 37 40 42 45 48 49
243 242 244 248 255 262 266 271 275 277 279 280 281 283 284 281 275 271 270 273 283 294 302 309 313 314 319 327 333 335 335 334 333 334 337 340 341 340 339 339 342 346 351 356 359 2 5 7 9 12 15 15 14 16 18 19 21 22 22 24 27 29 30 31 33 34 36 37 36 37 39 43 49 52
245 248 250 254 258 262 265 270 273 274 276 277 278 279 280 277 272 269 268 272 284 293 298 303 308 309 313 320 326 328 327 327 328 330 333 337 341 342 341 340 340 340 344 349 353 357 1 4 7 10 13 13 13 14 15 15 16 18 19 22 26 27 28 31 32 32 34 34 34 34 36 39 44 48